Montgomery, NY

12:50 PM EDT on October 14, 2019 (GMT -0400)
Orange County

Weather History for KMGJ - July, 2019

Change the Weather History Date:

Wednesday, July 10, 2019

  Actual Average (KSWF) Record (KSWF)
Temperature  
Mean Temperature 72 °F -  
Max Temperature 88 °F 80 °F 96 °F (1993)
Min Temperature 57 °F 59 °F 44 °F (1983)
Cooling Degree Days 7    
Growing Degree Days 22 (Base 50)    
Moisture  
Dew Point 63 °F    
Average Humidity 74    
Maximum Humidity 100    
Minimum Humidity 44    
Precipitation  
Precipitation 0.00 in - - ()
Sea Level Pressure  
Sea Level Pressure 30.01 in    
Wind  
Wind Speed 2 mph (SW)    
Max Wind Speed 8 mph    
Max Gust Speed -    
Visibility 10 miles    
Events      
Averages and records for this station are not official NWS values.
T = Trace of Precipitation, MM = Missing Value Source: NWS Daily Summary

Daily Weather History Graph

Daily Weather History Graph

Search for Another Location

Airport or City:

Astronomy

Jul. 10, 2019 Rise Set
Actual Time 5:32 AM EDT 8:32 PM EDT
Civil Twilight 4:58 AM EDT 9:05 PM EDT
Nautical Twilight 4:16 AM EDT 9:47 PM EDT
Astronomical Twilight 3:26 AM EDT 10:37 PM EDT
Moon 2:32 PM EDT (7/10) 1:14 AM EDT (7/10)
Length of Visible Light 16h 06m
Length of Day
14h 59m
Waxing Gibbous, 63% of the Moon is Illuminated
Jul 10
Waxing Gibbous
Jul 16
Full
Jul 24
Last Quarter
Jul 31
New
Aug 7
First Quarter

Hourly Weather History & Observations

Time (EDT) Temp. Heat Index Dew Point Humidity Pressure Visibility Wind Dir Wind Speed Gust Speed Precip Events Conditions
12:54 AM 61.0 °F - 59.0 °F 93% 30.04 in 10.0 mi Calm Calm - N/A   Clear
1:54 AM 59.0 °F - 57.9 °F 96% 30.04 in 10.0 mi Calm Calm - N/A   Clear
2:54 AM 59.0 °F - 57.9 °F 96% 30.03 in 10.0 mi Calm Calm - N/A   Clear
3:54 AM 57.9 °F - 57.0 °F 97% 30.04 in 10.0 mi Calm Calm - N/A   Clear
4:54 AM 57.0 °F - 55.9 °F 96% 30.04 in 10.0 mi SW 3.5 mph - N/A   Clear
5:28 AM 57.0 °F - 57.0 °F 100% 30.05 in 10.0 mi Calm Calm - N/A   Partly Cloudy
5:54 AM 57.9 °F - 57.0 °F 97% 30.06 in 10.0 mi Calm Calm - N/A   Clear
6:54 AM 61.0 °F - 59.0 °F 93% 30.06 in 10.0 mi Calm Calm - N/A   Clear
7:54 AM 64.0 °F - 61.0 °F 90% 30.07 in 10.0 mi Calm Calm - N/A   Clear
8:54 AM 71.1 °F - 62.1 °F 73% 30.06 in 10.0 mi Calm Calm - N/A   Clear
9:54 AM 75.9 °F - 61.0 °F 60% 30.06 in 10.0 mi Calm Calm - N/A   Clear
10:54 AM 79.0 °F - 64.0 °F 60% 30.05 in 10.0 mi West 3.5 mph - N/A   Clear
11:54 AM 82.9 °F 85.0 °F 66.0 °F 56% 30.04 in 10.0 mi Variable 4.6 mph - N/A   Clear
12:54 PM 84.0 °F 85.4 °F 64.0 °F 51% 30.02 in 10.0 mi Variable 3.5 mph - N/A   Partly Cloudy
1:54 PM 86.0 °F 86.8 °F 63.0 °F 46% 30.01 in 10.0 mi South 8.1 mph - N/A   Scattered Clouds
2:54 PM 86.0 °F 86.3 °F 62.1 °F 44% 30.00 in 10.0 mi WSW 4.6 mph - N/A   Partly Cloudy
3:54 PM 87.1 °F 88.3 °F 64.0 °F 46% 29.99 in 10.0 mi WSW 5.8 mph - N/A   Clear
4:54 PM 86.0 °F 87.3 °F 64.0 °F 48% 29.98 in 10.0 mi SW 8.1 mph - N/A   Clear
5:54 PM 84.9 °F 87.1 °F 66.0 °F 53% 29.96 in 10.0 mi SW 5.8 mph - N/A   Clear
6:54 PM 84.0 °F 86.5 °F 66.9 °F 56% 29.96 in 10.0 mi South 5.8 mph - N/A   Clear
7:54 PM 82.0 °F 84.5 °F 66.9 °F 60% 29.96 in 10.0 mi SSW 3.5 mph - N/A   Clear
8:54 PM 75.0 °F - 70.0 °F 84% 29.96 in 10.0 mi Calm Calm - N/A   Partly Cloudy
9:54 PM 73.0 °F - 69.1 °F 87% 29.97 in 10.0 mi Calm Calm - N/A   Clear
10:54 PM 73.0 °F - 69.1 °F 87% 29.96 in 10.0 mi Calm Calm - N/A   Mostly Cloudy
11:54 PM 70.0 °F - 68.0 °F 93% 29.96 in 10.0 mi Calm Calm - N/A   Scattered Clouds